Regional Weather Roundup
Issued by NWS

Home | Current Version | Previous Version | Text Only | Print | Product List | Glossary Off
Versions: 1 2 3 4 5 6 7 8 9 10 11 12 13 14 15 16 17 18 19 20 21 22 23 24 25 26 27 28 29 30 31 32 33 34 35 36 37 38 39 40 41 42 43 44 45 46 47 48 49 50

000
ASUS43 KDMX 161301
RWRIA

WEATHER ROUNDUP FOR IOWA
NATIONAL WEATHER SERVICE DES MOINES IA
800 AM CDT MON OCT 16 2017

NOTE: "FAIR" INDICATES FEW OR NO CLOUDS BELOW 12,000 FEET WITH NO
SIGNIFICANT WEATHER AND/OR OBSTRUCTIONS TO VISIBILITY.

* - THESE STATIONS ARE NOT NWS STATIONS...THUS NOT UNDER NWS
QUALITY CONTROL.  THEY ALSO DO NOT REPORT WEATHER SUCH
AS PRECIPITATION OR FOG.

IAZ001>003-012>014-020>022-031>034-043>046-161400-
   NORTHWEST IOWA

CITY           SKY/WX    TMP DP  RH WIND       PRES   REMARKS
CARROLL *      CLEAR     37  36  93 SW3       30.31S
CHEROKEE *     CLEAR     31  31 100 CALM      30.29F
DENISON *      CLEAR     32  32 100 CALM      30.34S
LE MARS *      CLEAR     32  32 100 S5        30.28F WCI  27
ORANGE CITY *  CLEAR     36  36 100 S3        30.27F
SHELDON *      CLEAR     30  28  93 SE5       30.25F WCI  25
SIOUX CITY     CLEAR     32  31  96 E5        30.30F WCI  27
SPENCER        CLEAR     32  29  88 S3        30.28S
STORM LAKE *   CLEAR     37  34  87 SW7       30.29S WCI  32
$$

IAZ055>058-069>071-079>083-090>094-161400-
   SOUTHWEST IOWA

CITY           SKY/WX    TMP DP  RH WIND       PRES   REMARKS
ATLANTIC *     CLEAR     32  32 100 CALM      30.34S
AUDUBON *      CLEAR     32  30  93 CALM      30.33S
CLARINDA *     CLEAR     36  36 100 CALM      30.38S
COUNCIL BLFS * CLEAR     41  37  87 SW6       30.33F
CRESTON *      CLEAR     37  34  87 SW3       30.36R
HARLAN  *      CLEAR     32  32 100 SW5       30.36F WCI  27
LAMONI         CLEAR     42  35  76 W6        30.35R
RED OAK *      CLEAR     34  34 100 CALM      30.36S
SHENANDOAH *   CLEAR     34  34 100 CALM      30.37R
$$

IAZ047>049-059>061-072>074-084-161400-
   CENTRAL IOWA

CITY           SKY/WX    TMP DP  RH WIND       PRES   REMARKS
AMES           CLEAR     34  34 100 CALM      30.31F
ANKENY *       CLEAR     34  34 100 CALM      30.33F
BOONE *        CLEAR     37  34  87 W7        30.30S WCI  32
CHARITON *     CLEAR     37  36  93 SW5       30.33S WCI  34
DES MOINES     PTCLDY    40  35  83 SW3       30.32S
GRINNELL*      CLEAR     36  34  93 W5        30.33R WCI  32
KNOXVILLE *    CLEAR     37  34  87 SW7       30.31S WCI  32
MARSHALLTOWN   CLEAR     34  33  96 SW3       30.30S
NEWTON *       CLEAR     36  34  93 W3        30.32S
PELLA *        CLEAR     38  37  94 CALM      30.34S
PERRY *          N/A     35  35  99 SW5       30.32S WCI  31
$$

IAZ004>006-015-016-023>025-035-036-161400-
   NORTH CENTRAL IOWA

CITY           SKY/WX    TMP DP  RH WIND       PRES   REMARKS
ALGONA *       CLEAR     36  36 100 SW3       30.28S
CLARION *      CLEAR     34  34 100 S3        30.30S
ESTHERVILLE    CLEAR     32  31  96 SW5       30.26F WCI  27
FORT DODGE *   CLEAR     33  32  96 SW3       30.31S
MASON CITY     CLEAR     34  31  88 W6        30.29S WCI  29
FOREST CITY *    N/A     32  32 100 CALM      30.28S FOG
WEBSTER CITY * CLEAR     32  32 100 CALM      30.28F
IOWA FALLS *     N/A     36  33  91 SW8       30.31S WCI  29
$$

IAZ007>011-017>019-026>030-037>042-050>054-066-161400-
   NORTHEAST IOWA

CITY           SKY/WX    TMP DP  RH WIND       PRES   REMARKS
CEDAR RAPIDS   CLEAR     36  34  92 CALM      30.31R
CHARLES CITY * CLEAR     34  34 100 S3        30.29S
CLINTON *      CLEAR     36  35  96 W7        30.32R WCI  30
DECORAH *      CLEAR     36  36 100 CALM      30.27S
DUBUQUE        CLEAR     35  33  92 SW5       30.29S WCI  31
MONTICELLO *   CLEAR     34  34 100 CALM      30.30S
OELWEIN *      CLEAR     34  34 100 CALM      30.30S
WATERLOO       CLEAR     34  31  88 CALM      30.30R
$$

IAZ064-065-067-068-078-161400-
   EAST CENTRAL IOWA

CITY           SKY/WX    TMP DP  RH WIND       PRES   REMARKS
DAVENPORT      CLEAR     39  37  92 W6        30.34R WCI  35
IOWA CITY      CLEAR     37  34  89 CALM      30.34S
MUSCATINE *    CLEAR     41  36  81 CALM      30.34S
QUAD CITIES    CLEAR     40  37  89 CALM      30.32R
$$

IAZ062-063-075>077-085>089-095>099-161400-
   SOUTHEAST IOWA

CITY           SKY/WX    TMP DP  RH WIND       PRES   REMARKS
BURLINGTON     CLEAR     40  38  93 W5        30.34R
FAIRFIELD *    CLEAR     39  36  87 W6        30.33S WCI  35
FORT MADISON * CLEAR     43  37  81 SW5       30.35S
KEOKUK *       CLEAR     41  37  87 SW5       30.35R
OSKALOOSA *      N/A     35  33  92 SW5       30.33S WCI  31
OTTUMWA        CLEAR     39  35  86 SW3       30.33S
WASHINGTON *   CLEAR     39  37  93 W6        30.34S WCI  35
$$

ABBREVIATIONS USED IN REMARKS
   TC - TEMPERATURES IN CELSIUS
  WCI - WIND CHILL INDEX
   HX - HEAT INDEX
  VSB - VISIBILITY
$$





USA.gov is the U.S. government's official web portal to all federal, state and local government web resources and services.